Miscellaneous Local Product
Issued by NWS Hastings, NE

Home | Current Version | Previous Version | Graphics & Text | Print | Product List | Glossary On
Versions: 1 2 3 4 5 6 7 8 9 10 11 12 13 14 15 16 17 18 19 20 21 22 23 24 25 26 27 28 29 30 31 32 33 34 35 36 37 38 39 40 41 42 43 44 45 46 47 48 49 50
000
AXUS43 KGID 262102
MISGRI

GID CWA HOURLY WEATHER ROUNDUP
NATIONAL WEATHER SERVICE HASTINGS NE
400 PM CDT TUE MAY 26 2015

NOTE: "FAIR" INDICATES FEW OR NO CLOUDS BELOW 12,000 FEET WITH NO
SIGNIFICANT WEATHER AND/OR OBSTRUCTIONS TO VISIBILITY.

...SOUTH CENTRAL NEBRASKA...

CITY           SKY/WX    TMP DP  RH WIND       PRES   REMARKS
GRAND ISLAND   MOSUNNY   70  52  52 NW15G24   29.92S
HASTINGS       PTSUNNY   69  52  54 NW15      29.92F
KEARNEY        CLOUDY    70  48  46 NW18G25   29.94S
ORD            PTSUNNY   68  48  48 N13       29.92S
YORK           CLOUDY    64  55  72 NW15      29.91R
AURORA         PTSUNNY   67  53  59 NW12      29.91S
LEXINGTON      MOSUNNY   69  52  54 N14       29.97S
HOLDREGE       MOSUNNY   69  47  44 NW12G18   29.95F
HEBRON         MOSUNNY   71  51  48 NW14G21   29.91R

...NEBRASKA PANHANDLE...

CITY           SKY/WX    TMP DP  RH WIND       PRES   REMARKS
CHADRON        MOSUNNY   70  50  49 MISG      29.97F
ALLIANCE       MOSUNNY   67  48  50 VRB6      29.99F
SCOTTSBLUFF    MOSUNNY   69  52  54 SE13G21   29.98F
SIDNEY         MOSUNNY   65  50  58 VRB7      30.02F

...WESTERN AND NORTH CENTRAL NEBRASKA...

CITY           SKY/WX    TMP DP  RH WIND       PRES   REMARKS
VALENTINE      PTSUNNY   72  46  39 N6        29.96S
AINSWORTH      PTSUNNY   70  49  46 NW10      29.96S
ONEILL         CLOUDY    67  55  65 N9        29.92F
BROKEN BOW     PTSUNNY   69  49  48 N8        29.96S
IMPERIAL       MOSUNNY   69  51  52 NW5       29.99F
NORTH PLATTE   MOSUNNY   67  47  48 NW9       29.98F
MCCOOK         MOSUNNY   73  49  42 NW10G23   29.97S

...EASTERN NEBRASKA...

CITY           SKY/WX    TMP DP  RH WIND       PRES   REMARKS
NORFOLK        CLOUDY    69  53  56 N17       29.87S
SO SIOUX CITY  PTSUNNY   65  56  72 NW12      29.83F
TEKAMAH        LGT RAIN  63  58  83 NW16      29.85R
COLUMBUS         N/A    N/A N/A N/A MISG        N/A
ALBION         PTSUNNY   66  52  59 N9G17     29.90S
OMAHA EPPLEY   CLOUDY    66  60  81 NW14      29.84R
OFFUTT AFB     PTSUNNY   68  60  74 NW14G22   29.84R
MILLARD        CLOUDY    67  59  76 NW10G22   29.86R
LINCOLN        CLOUDY    69  56  62 NW17      29.88R
NEBRASKA CITY  PTSUNNY   69  61  73 NW13      29.86R
BEATRICE       PTSUNNY   72  58  60 W15G25    29.88R
FALLS CITY     MOSUNNY   75  61  61 W18G30    29.85R

...NORTHERN KANSAS...

CITY           SKY/WX    TMP DP  RH WIND       PRES   REMARKS
GOODLAND       CLOUDY    70  50  49 N10       30.00S
HILL CITY      MOSUNNY   74  54  49 N8          N/A
NORTON         CLEAR     73  46  38 NW15      29.96R
PHILLIPSBURG   SUNNY     73  54  49 NW14      29.96R
SMITH CENTER   MOSUNNY   70  54  56 NW16G22   29.95R
HAYS           MOSUNNY   77  54  44 NW8       29.95S
RUSSELL        MOSUNNY   75  55  49 W13       29.93S
CONCORDIA      PTSUNNY   75  54  47 W14G23    29.91R
SALINA         MOSUNNY   78  57  48 NW9       29.93R
TOPEKA         MOSUNNY   77  60  55 W16       29.89S



USA.gov is the U.S. government's official web portal to all federal, state and local government web resources and services.